Doha, Qatar

1:11 AM AST on February 10, 2016 (GMT +0300)
Doha International

Weather History for OTBD - February, 2014

Change the Weather History Date:

Tuesday, February 25, 2014

  Actual Average Record
Temperature  
Mean Temperature 71 °F -  
Max Temperature 77 °F 79 °F 96 °F (2002)
Min Temperature 65 °F 61 °F 55 °F (2008)
Cooling Degree Days 6    
Growing Degree Days 21 (Base 50)    
Moisture  
Dew Point 62 °F    
Average Humidity 71    
Maximum Humidity 83    
Minimum Humidity 50    
Precipitation  
Precipitation 0.00 in 0.02 in - ()
Sea Level Pressure  
Sea Level Pressure 30.05 in    
Wind  
Wind Speed 8 mph ()    
Max Wind Speed 14 mph    
Max Gust Speed -    
Visibility 6.0 miles    
Events      
Averages and records for this station are not official NWS values.
T = Trace of Precipitation, MM = Missing Value Source: Averaged Metar Reports

Daily Weather History Graph

Daily Weather History Graph

Search for Another Location

Airport or City:

Trip Planner

Search our weather history database for the weather conditions in past years. The results will help you decide how hot, cold, wet, or windy it might be!

Date:

Astronomy

Feb. 25, 2014 Rise Set
Actual Time 6:00 AM AST 5:33 PM AST
Civil Twilight 5:37 AM AST 5:56 PM AST
Nautical Twilight 5:10 AM AST 6:23 PM AST
Astronomical Twilight 4:44 AM AST 6:49 PM AST
Moon 2:16 AM AST (2/25) 1:29 PM AST (2/25)
Length of Visible Light 12h 19m
Length of Day
11h 32m
Waning Crescent, 21% of the Moon is Illuminated
Feb 25
Waning Crescent
Mar 1
New
Mar 8
First Quarter
Mar 16
Full
Mar 24
Last Quarter

Hourly Weather History & Observations

Time (AST) Temp. Dew Point Humidity Pressure Visibility Wind Dir Wind Speed Gust Speed Precip Events Conditions
12:00 AM 69 °F 60 °F 66% 30.03 in 6 mi ESE 6.9 mph - -   Scattered Clouds
3:00 AM 68 °F 60 °F 70% 30.00 in 6 mi ESE 5.8 mph - -   Scattered Clouds
6:00 AM 66 °F 62 °F 83% 30.04 in 4 mi ESE 6.9 mph - -   Haze
9:00 AM 73 °F 61 °F 58% 30.11 in 6 mi ESE 12.7 mph - -   Scattered Clouds
9:00 AM 73.4 °F 60.8 °F 65% 30.09 in - ESE 12.7 mph - N/A   Clear
12:00 PM 76 °F 61 °F 50% 30.09 in 7 mi ESE 13.8 mph - -   Scattered Clouds
12:00 PM 77.0 °F 60.8 °F 57% 30.06 in - ESE 13.8 mph - N/A   Clear
2:30 PM 77.0 °F 60.8 °F 57% 30.04 in - ESE 10.4 mph - N/A   Clear
3:00 PM 76 °F 62 °F 52% 30.03 in 7 mi ESE 9.2 mph - -   Scattered Clouds
3:00 PM 75.2 °F 62.6 °F 65% 30.01 in - ESE 9.2 mph - N/A   Clear
3:30 PM 75.2 °F 62.6 °F 65% 30.01 in - ESE 9.2 mph - N/A   Clear
4:00 PM 75.2 °F 62.6 °F 65% 30.01 in - ESE 11.5 mph - N/A   Clear
4:30 PM 73.4 °F 62.6 °F 69% 30.01 in 6.2 mi ESE 10.4 mph - N/A   Scattered Clouds
5:00 PM 71.6 °F 64.4 °F 78% 30.04 in 6.2 mi East 9.2 mph - N/A   Scattered Clouds
5:30 PM 71.6 °F 64.4 °F 78% 30.04 in - East 8.1 mph - N/A   Clear
6:00 PM 71 °F 64 °F 72% 30.05 in 6 mi ENE 6.9 mph - -   Partly Cloudy
6:00 PM 69.8 °F 64.4 °F 83% 30.04 in - ENE 6.9 mph - N/A   Clear
6:30 PM 69.8 °F 64.4 °F 83% 30.06 in - ENE 5.8 mph - N/A   Clear
7:00 PM 71.6 °F 62.6 °F 73% 30.06 in - ENE 5.8 mph - N/A   Clear
7:30 PM 71.6 °F 64.4 °F 78% 30.06 in - NE 6.9 mph - N/A   Clear
8:00 PM 69.8 °F 62.6 °F 78% 30.06 in - ENE 8.1 mph - N/A   Clear
8:30 PM 69.8 °F 62.6 °F 78% 30.06 in - ENE 3.5 mph - N/A   Clear
9:00 PM 69 °F 62 °F 72% 30.08 in 6 mi ENE 5.8 mph - -   Scattered Clouds
9:00 PM 69.8 °F 62.6 °F 78% 30.06 in - ENE 5.8 mph - N/A   Clear
9:30 PM 69.8 °F 62.6 °F 78% 30.06 in - ENE 5.8 mph - N/A   Clear
10:00 PM 69.8 °F 62.6 °F 78% 30.06 in - ENE 5.8 mph - N/A   Clear
10:30 PM 68.0 °F 62.6 °F 83% 30.06 in - ENE 5.8 mph - N/A   Clear
11:00 PM 68.0 °F 62.6 °F 83% 30.06 in - East 3.5 mph - N/A   Clear